Time,TemperatureF,DewpointF,PressureIn,WindDirection,WindDirectionDegrees,WindSpeedMPH,WindSpeedGustMPH,Humidity,HourlyPrecipIn,Conditions,Clouds,dailyrainin,SoftwareType,DateUTC
2013-03-09 00:01:00,32.0,27.0,-100.00,ENE,68,3.0,9.0,85,0.04,,,-99.99,,2013-03-09 07:01:00,
2013-03-09 00:11:00,31.0,28.0,-100.00,NW,316,2.0,7.0,87,0.00,,,-99.99,,2013-03-09 07:11:00,
2013-03-09 00:21:00,30.0,29.0,-100.00,West,265,4.0,7.0,94,0.01,,,-99.99,,2013-03-09 07:21:00,
2013-03-09 00:31:00,30.0,29.0,-100.00,West,281,8.0,12.0,96,0.00,,,-99.99,,2013-03-09 07:31:00,
2013-03-09 00:41:00,30.0,29.0,-100.00,West,261,9.0,11.0,96,0.00,,,-99.99,,2013-03-09 07:41:00,
2013-03-09 00:51:00,30.0,28.0,-100.00,West,260,11.0,13.0,94,0.00,,,-99.99,,2013-03-09 07:51:00,
2013-03-09 01:01:00,30.0,28.0,-100.00,WSW,244,10.0,12.0,93,0.00,,,-99.99,,2013-03-09 08:01:00,
2013-03-09 01:11:00,30.0,28.0,-100.00,WSW,237,10.0,13.0,93,0.00,,,-99.99,,2013-03-09 08:11:00,
2013-03-09 01:21:00,30.0,28.0,-100.00,WSW,248,7.0,14.0,90,0.00,,,-99.99,,2013-03-09 08:21:00,
2013-03-09 01:32:00,30.0,27.0,-100.00,West,280,9.0,15.0,87,0.00,,,-99.99,,2013-03-09 08:32:00,
2013-03-09 01:41:00,30.0,27.0,-100.00,WNW,294,9.0,12.0,87,0.00,,,-99.99,,2013-03-09 08:41:00,
2013-03-09 01:52:00,29.0,27.0,-100.00,WNW,282,6.0,9.0,89,0.00,,,-99.99,,2013-03-09 08:52:00,
2013-03-09 02:01:00,30.0,27.0,-100.00,West,261,5.0,6.0,89,0.00,,,-99.99,,2013-03-09 09:01:00,
2013-03-09 02:12:00,29.0,27.0,-100.00,West,261,6.0,7.0,90,0.00,,,-99.99,,2013-03-09 09:12:00,
2013-03-09 02:21:00,30.0,27.0,-100.00,WSW,258,4.0,6.0,88,0.00,,,-99.99,,2013-03-09 09:21:00,
2013-03-09 02:31:00,30.0,26.0,-100.00,West,277,4.0,9.0,86,0.00,,,-99.99,,2013-03-09 09:31:00,
2013-03-09 02:41:00,29.0,26.0,-100.00,WNW,299,7.0,9.0,87,0.00,,,-99.99,,2013-03-09 09:41:00,
2013-03-09 02:52:00,29.0,26.0,-100.00,NW,312,5.0,7.0,90,0.00,,,-99.99,,2013-03-09 09:52:00,
2013-03-09 03:01:00,28.0,26.0,-100.00,NW,313,4.0,7.0,92,0.00,,,-99.99,,2013-03-09 10:01:00,
2013-03-09 03:11:00,28.0,26.0,-100.00,NW,312,4.0,6.0,93,0.00,,,-99.99,,2013-03-09 10:11:00,
2013-03-09 03:21:00,27.0,26.0,-100.00,NW,305,5.0,8.0,95,0.00,,,-99.99,,2013-03-09 10:21:00,
2013-03-09 03:31:00,27.0,27.0,-100.00,NW,312,4.0,7.0,97,0.01,,,-99.99,,2013-03-09 10:31:00,
2013-03-09 03:41:00,27.0,27.0,-100.00,WNW,294,4.0,6.0,98,0.00,,,-99.99,,2013-03-09 10:41:00,
2013-03-09 03:51:00,27.0,27.0,-100.00,WNW,284,3.0,6.0,99,0.01,,,-99.99,,2013-03-09 10:51:00,
2013-03-09 04:01:00,27.0,27.0,-100.00,WNW,302,5.0,8.0,99,0.01,,,-99.99,,2013-03-09 11:01:00,
2013-03-09 04:11:00,27.0,27.0,-100.00,NW,305,7.0,11.0,100,0.03,,,-99.99,,2013-03-09 11:11:00,
2013-03-09 04:21:00,27.0,27.0,-100.00,NW,311,9.0,12.0,100,0.01,,,-99.99,,2013-03-09 11:21:00,
2013-03-09 04:32:00,27.0,27.0,-100.00,NW,313,7.0,10.0,100,0.00,,,-99.99,,2013-03-09 11:32:00,
2013-03-09 04:41:00,27.0,27.0,-100.00,NW,323,7.0,9.0,100,0.01,,,-99.99,,2013-03-09 11:41:00,
2013-03-09 04:52:00,26.0,26.0,-100.00,NW,319,7.0,10.0,100,0.03,,,-99.99,,2013-03-09 11:52:00,
2013-03-09 05:01:00,26.0,26.0,-100.00,NW,323,9.0,10.0,100,0.04,,,-99.99,,2013-03-09 12:01:00,
2013-03-09 05:11:00,26.0,26.0,-100.00,NNW,333,9.0,16.0,100,0.03,,,-99.99,,2013-03-09 12:11:00,
2013-03-09 05:21:00,26.0,26.0,-100.00,NNW,343,10.0,14.0,100,0.04,,,-99.99,,2013-03-09 12:21:00,
2013-03-09 05:32:00,26.0,26.0,-100.00,NNW,343,11.0,17.0,100,0.04,,,-99.99,,2013-03-09 12:32:00,
2013-03-09 05:42:00,26.0,26.0,-100.00,North,349,14.0,17.0,100,0.04,,,-99.99,,2013-03-09 12:42:00,
2013-03-09 05:52:00,25.0,25.0,-100.00,NNW,340,15.0,18.0,100,0.07,,,-99.99,,2013-03-09 12:52:00,
2013-03-09 06:02:00,25.0,25.0,-100.00,NNW,340,15.0,18.0,100,0.03,,,-99.99,,2013-03-09 13:02:00,
2013-03-09 06:11:00,25.0,25.0,-100.00,NNW,342,15.0,19.0,100,0.01,,,-99.99,,2013-03-09 13:11:00,
2013-03-09 06:21:00,25.0,25.0,-100.00,NNW,337,15.0,19.0,100,0.04,,,-99.99,,2013-03-09 13:21:00,
2013-03-09 06:32:00,24.0,24.0,-100.00,NNW,335,14.0,17.0,100,0.03,,,-99.99,,2013-03-09 13:32:00,
2013-03-09 06:42:00,24.0,24.0,-100.00,NNW,339,15.0,18.0,100,0.03,,,-99.99,,2013-03-09 13:42:00,
2013-03-09 06:52:00,24.0,24.0,-100.00,NNW,336,16.0,19.0,100,0.01,,,-99.99,,2013-03-09 13:52:00,
2013-03-09 07:01:00,24.0,24.0,-100.00,NNW,339,15.0,17.0,100,0.01,,,-99.99,,2013-03-09 14:01:00,
2013-03-09 07:11:00,24.0,24.0,-100.00,NNW,339,15.0,18.0,100,0.00,,,-99.99,,2013-03-09 14:11:00,
2013-03-09 07:21:00,24.0,24.0,-100.00,NNW,337,15.0,19.0,100,0.01,,,-99.99,,2013-03-09 14:21:00,
2013-03-09 07:32:00,24.0,24.0,-100.00,NNW,339,15.0,20.0,100,0.00,,,-99.99,,2013-03-09 14:32:00,
2013-03-09 07:41:00,24.0,24.0,-100.00,NNW,336,14.0,18.0,100,0.01,,,-99.99,,2013-03-09 14:41:00,
2013-03-09 07:52:00,24.0,24.0,-100.00,NNW,337,16.0,22.0,100,0.03,,,-99.99,,2013-03-09 14:52:00,
2013-03-09 08:01:00,24.0,24.0,-100.00,NNW,335,16.0,20.0,100,0.08,,,-99.99,,2013-03-09 15:01:00,
2013-03-09 08:11:00,24.0,24.0,-100.00,NNW,335,16.0,19.0,100,0.10,,,-99.99,,2013-03-09 15:11:00,
2013-03-09 08:22:00,24.0,24.0,-100.00,NNW,336,20.0,24.0,100,0.01,,,-99.99,,2013-03-09 15:22:00,
2013-03-09 08:32:00,24.0,24.0,-100.00,NNW,336,19.0,24.0,100,0.01,,,-99.99,,2013-03-09 15:32:00,
2013-03-09 08:42:00,23.0,23.0,-100.00,NNW,337,18.0,22.0,100,0.01,,,-99.99,,2013-03-09 15:42:00,
2013-03-09 08:52:00,23.0,23.0,-100.00,NNW,337,19.0,25.0,100,0.01,,,-99.99,,2013-03-09 15:52:00,
2013-03-09 09:01:00,23.0,23.0,-100.00,NNW,339,20.0,24.0,100,0.00,,,-99.99,,2013-03-09 16:01:00,
2013-03-09 09:11:00,23.0,23.0,-100.00,NNW,339,19.0,24.0,100,0.01,,,-99.99,,2013-03-09 16:11:00,
2013-03-09 09:21:00,23.0,23.0,-100.00,NNW,335,17.0,22.0,100,0.00,,,-99.99,,2013-03-09 16:21:00,
2013-03-09 09:32:00,23.0,23.0,-100.00,NNW,336,19.0,23.0,100,0.00,,,-99.99,,2013-03-09 16:32:00,
2013-03-09 09:41:00,22.0,22.0,-100.00,NNW,335,20.0,26.0,100,0.03,,,-99.99,,2013-03-09 16:41:00,
2013-03-09 09:51:00,22.0,22.0,-100.00,NNW,335,19.0,24.0,100,0.00,,,-99.99,,2013-03-09 16:51:00,
2013-03-09 10:01:00,22.0,22.0,-100.00,NNW,337,21.0,27.0,100,0.03,,,-99.99,,2013-03-09 17:01:00,
2013-03-09 10:11:00,22.0,22.0,-100.00,NNW,337,21.0,27.0,100,0.03,,,-99.99,,2013-03-09 17:11:00,
2013-03-09 10:22:00,22.0,22.0,-100.00,NNW,344,22.0,29.0,100,0.06,,,-99.99,,2013-03-09 17:22:00,
2013-03-09 10:32:00,21.0,21.0,-100.00,NNW,344,22.0,28.0,100,0.04,,,-99.99,,2013-03-09 17:32:00,
2013-03-09 10:42:00,21.0,21.0,-100.00,North,357,21.0,26.0,99,0.00,,,-99.99,,2013-03-09 17:42:00,
2013-03-09 10:52:00,22.0,21.0,-100.00,North,349,19.0,24.0,98,0.01,,,-99.99,,2013-03-09 17:52:00,
2013-03-09 11:01:00,22.0,21.0,-100.00,NNW,346,17.0,21.0,96,0.00,,,-99.99,,2013-03-09 18:01:00,
2013-03-09 11:11:00,22.0,20.0,-100.00,NNW,346,18.0,22.0,93,0.00,,,-99.99,,2013-03-09 18:11:00,
2013-03-09 11:21:00,23.0,20.0,-100.00,NNW,339,15.0,18.0,87,0.00,,,-99.99,,2013-03-09 18:21:00,
2013-03-09 11:32:00,23.0,20.0,-100.00,NNW,339,17.0,21.0,89,0.01,,,-99.99,,2013-03-09 18:32:00,
2013-03-09 11:42:00,23.0,19.0,-100.00,NNW,337,19.0,24.0,87,0.00,,,-99.99,,2013-03-09 18:42:00,
2013-03-09 11:52:00,23.0,19.0,-100.00,NNW,337,21.0,27.0,84,0.00,,,-99.99,,2013-03-09 18:52:00,
2013-03-09 12:01:00,23.0,19.0,-100.00,NNW,342,21.0,25.0,83,0.00,,,-99.99,,2013-03-09 19:01:00,
2013-03-09 12:11:00,23.0,18.0,-100.00,NNW,344,19.0,24.0,81,0.00,,,-99.99,,2013-03-09 19:11:00,
2013-03-09 12:22:00,23.0,18.0,-100.00,NNW,330,20.0,24.0,81,0.00,,,-99.99,,2013-03-09 19:22:00,
2013-03-09 12:32:00,24.0,18.0,-100.00,NNW,336,21.0,25.0,78,0.00,,,-99.99,,2013-03-09 19:32:00,
2013-03-09 12:42:00,24.0,18.0,-100.00,NNW,339,19.0,23.0,77,0.00,,,-99.99,,2013-03-09 19:42:00,
2013-03-09 12:51:00,24.0,18.0,-100.00,NNW,337,17.0,22.0,79,0.00,,,-99.99,,2013-03-09 19:51:00,
2013-03-09 13:01:00,24.0,19.0,-100.00,NNW,335,17.0,21.0,81,0.00,,,-99.99,,2013-03-09 20:01:00,
2013-03-09 13:11:00,24.0,19.0,-100.00,NNW,330,17.0,21.0,81,0.00,,,-99.99,,2013-03-09 20:11:00,
2013-03-09 13:21:00,24.0,19.0,-100.00,NNW,330,20.0,28.0,81,0.00,,,-99.99,,2013-03-09 20:21:00,
2013-03-09 13:32:00,24.0,18.0,-100.00,NNW,330,21.0,24.0,79,0.00,,,-99.99,,2013-03-09 20:32:00,
2013-03-09 13:42:00,23.0,18.0,-100.00,NNW,329,21.0,26.0,82,0.01,,,-99.99,,2013-03-09 20:42:00,
2013-03-09 13:52:00,23.0,18.0,-100.00,NNW,332,21.0,26.0,81,0.00,,,-99.99,,2013-03-09 20:52:00,
2013-03-09 14:02:00,24.0,18.0,-100.00,NNW,329,20.0,24.0,80,0.00,,,-99.99,,2013-03-09 21:02:00,
2013-03-09 14:12:00,24.0,18.0,-100.00,NW,326,18.0,22.0,78,0.00,,,-99.99,,2013-03-09 21:12:00,
2013-03-09 14:21:00,24.0,17.0,-100.00,NW,325,21.0,26.0,74,0.00,,,-99.99,,2013-03-09 21:21:00,
2013-03-09 14:32:00,24.0,18.0,-100.00,NW,323,22.0,26.0,76,0.00,,,-99.99,,2013-03-09 21:32:00,
2013-03-09 14:42:00,24.0,18.0,-100.00,NNW,328,23.0,27.0,77,0.00,,,-99.99,,2013-03-09 21:42:00,
2013-03-09 14:52:00,24.0,18.0,-100.00,NNW,329,24.0,27.0,80,0.00,,,-99.99,,2013-03-09 21:52:00,
2013-03-09 15:01:00,23.0,18.0,-100.00,NW,326,23.0,27.0,80,0.00,,,-99.99,,2013-03-09 22:01:00,
2013-03-09 15:11:00,24.0,17.0,-100.00,NW,325,24.0,28.0,77,0.00,,,-99.99,,2013-03-09 22:11:00,
2013-03-09 15:21:00,24.0,18.0,-100.00,NNW,330,19.0,24.0,80,0.00,,,-99.99,,2013-03-09 22:21:00,
2013-03-09 15:32:00,24.0,19.0,-100.00,NNW,335,19.0,24.0,80,0.00,,,-99.99,,2013-03-09 22:32:00,
2013-03-09 15:41:00,24.0,18.0,-100.00,NNW,333,21.0,28.0,79,0.00,,,-99.99,,2013-03-09 22:41:00,
2013-03-09 15:51:00,24.0,18.0,-100.00,NNW,332,20.0,24.0,79,0.00,,,-99.99,,2013-03-09 22:51:00,
2013-03-09 16:01:00,24.0,18.0,-100.00,NNW,330,19.0,24.0,77,0.00,,,-99.99,,2013-03-09 23:01:00,
2013-03-09 16:11:00,24.0,18.0,-100.00,NW,320,21.0,26.0,78,0.00,,,-99.99,,2013-03-09 23:11:00,
2013-03-09 16:21:00,24.0,18.0,-100.00,NNW,329,21.0,26.0,79,0.00,,,-99.99,,2013-03-09 23:21:00,
2013-03-09 16:32:00,23.0,17.0,-100.00,NNW,328,20.0,24.0,78,0.00,,,-99.99,,2013-03-09 23:32:00,
2013-03-09 16:41:00,23.0,18.0,-100.00,NW,325,21.0,26.0,79,0.00,,,-99.99,,2013-03-09 23:41:00,
2013-03-09 16:52:00,23.0,17.0,-100.00,NNW,332,22.0,29.0,79,0.00,,,-99.99,,2013-03-09 23:52:00,
2013-03-09 17:01:00,22.0,18.0,-100.00,NW,325,22.0,26.0,82,0.03,,,-99.99,,2013-03-10 00:01:00,
2013-03-09 17:11:00,22.0,17.0,-100.00,NNW,329,21.0,24.0,78,0.00,,,-99.99,,2013-03-10 00:11:00,
2013-03-09 17:22:00,22.0,17.0,-100.00,NNW,333,17.0,21.0,79,0.00,,,-99.99,,2013-03-10 00:22:00,
2013-03-09 17:32:00,22.0,16.0,-100.00,NNW,328,17.0,21.0,78,0.00,,,-99.99,,2013-03-10 00:32:00,
2013-03-09 17:42:00,22.0,17.0,-100.00,NNW,332,18.0,22.0,80,0.00,,,-99.99,,2013-03-10 00:42:00,
2013-03-09 17:51:00,22.0,17.0,-100.00,NNW,328,18.0,22.0,81,0.00,,,-99.99,,2013-03-10 00:51:00,
2013-03-09 18:01:00,21.0,16.0,-100.00,NNW,330,22.0,26.0,80,0.00,,,-99.99,,2013-03-10 01:01:00,
2013-03-09 18:11:00,21.0,16.0,-100.00,NNW,333,22.0,26.0,80,0.00,,,-99.99,,2013-03-10 01:11:00,
2013-03-09 18:21:00,21.0,16.0,-100.00,NNW,332,20.0,24.0,82,0.00,,,-99.99,,2013-03-10 01:21:00,
2013-03-09 18:31:00,21.0,16.0,-100.00,NNW,335,19.0,23.0,82,0.00,,,-99.99,,2013-03-10 01:31:00,
2013-03-09 18:41:00,21.0,17.0,-100.00,NNW,330,18.0,22.0,84,0.00,,,-99.99,,2013-03-10 01:41:00,
2013-03-09 18:51:00,20.0,17.0,-100.00,NNW,332,18.0,23.0,86,0.01,,,-99.99,,2013-03-10 01:51:00,
2013-03-09 19:01:00,20.0,17.0,-100.00,NNW,330,18.0,23.0,87,0.00,,,-99.99,,2013-03-10 02:01:00,
2013-03-09 19:11:00,20.0,16.0,-100.00,NW,325,15.0,21.0,87,0.01,,,-99.99,,2013-03-10 02:11:00,
2013-03-09 19:22:00,19.0,17.0,-100.00,NNW,330,13.0,17.0,89,0.01,,,-99.99,,2013-03-10 02:22:00,
2013-03-09 19:32:00,19.0,17.0,-100.00,NNW,328,9.0,13.0,91,0.00,,,-99.99,,2013-03-10 02:32:00,
2013-03-09 19:42:00,19.0,16.0,-100.00,NW,326,11.0,17.0,88,0.00,,,-99.99,,2013-03-10 02:42:00,
2013-03-09 19:52:00,19.0,15.0,-100.00,NW,323,14.0,18.0,84,0.00,,,-99.99,,2013-03-10 02:52:00,
2013-03-09 20:01:00,18.0,14.0,-100.00,NW,313,10.0,14.0,85,0.00,,,-99.99,,2013-03-10 03:01:00,
2013-03-09 20:11:00,18.0,14.0,-100.00,NW,304,9.0,14.0,85,0.00,,,-99.99,,2013-03-10 03:11:00,
2013-03-09 20:22:00,18.0,14.0,-100.00,WNW,288,6.0,9.0,85,0.00,,,-99.99,,2013-03-10 03:22:00,
2013-03-09 20:32:00,18.0,13.0,-100.00,WNW,287,7.0,10.0,84,0.00,,,-99.99,,2013-03-10 03:32:00,
2013-03-09 20:42:00,18.0,14.0,-100.00,WNW,291,9.0,11.0,83,0.00,,,-99.99,,2013-03-10 03:42:00,
2013-03-09 20:52:00,18.0,14.0,-100.00,WNW,291,9.0,12.0,83,0.00,,,-99.99,,2013-03-10 03:52:00,
2013-03-09 21:01:00,18.0,14.0,-100.00,WNW,296,11.0,13.0,84,0.00,,,-99.99,,2013-03-10 04:01:00,
2013-03-09 21:11:00,18.0,14.0,-100.00,WNW,299,10.0,15.0,85,0.00,,,-99.99,,2013-03-10 04:11:00,
2013-03-09 21:21:00,18.0,14.0,-100.00,WNW,285,9.0,12.0,84,0.00,,,-99.99,,2013-03-10 04:21:00,
2013-03-09 21:31:00,18.0,14.0,-100.00,West,264,7.0,10.0,84,0.00,,,-99.99,,2013-03-10 04:31:00,
2013-03-09 21:41:00,18.0,14.0,-100.00,WSW,258,7.0,10.0,85,0.00,,,-99.99,,2013-03-10 04:41:00,
2013-03-09 21:51:00,18.0,15.0,-100.00,WSW,247,9.0,13.0,85,0.01,,,-99.99,,2013-03-10 04:51:00,
2013-03-09 22:01:00,18.0,15.0,-100.00,WSW,247,9.0,11.0,85,0.01,,,-99.99,,2013-03-10 05:01:00,
2013-03-09 22:11:00,18.0,15.0,-100.00,WSW,250,9.0,12.0,88,0.03,,,-99.99,,2013-03-10 05:11:00,
2013-03-09 22:22:00,18.0,16.0,-100.00,WSW,246,9.0,12.0,92,0.03,,,-99.99,,2013-03-10 05:22:00,
2013-03-09 22:31:00,17.0,16.0,-100.00,WSW,251,10.0,12.0,95,0.08,,,-99.99,,2013-03-10 05:31:00,
2013-03-09 22:42:00,17.0,17.0,-100.00,WSW,254,10.0,12.0,97,0.06,,,-99.99,,2013-03-10 05:42:00,
2013-03-09 22:52:00,17.0,17.0,-100.00,WSW,253,9.0,11.0,97,0.04,,,-99.99,,2013-03-10 05:52:00,
2013-03-09 23:01:00,17.0,17.0,-100.00,WSW,250,9.0,11.0,98,0.04,,,-99.99,,2013-03-10 06:01:00,
2013-03-09 23:11:00,17.0,17.0,-100.00,WSW,256,9.0,11.0,98,0.04,,,-99.99,,2013-03-10 06:11:00,
2013-03-09 23:22:00,17.0,17.0,-100.00,West,267,9.0,11.0,98,0.07,,,-99.99,,2013-03-10 06:22:00,
2013-03-09 23:32:00,17.0,17.0,-100.00,West,280,10.0,12.0,98,0.07,,,-99.99,,2013-03-10 06:32:00,
2013-03-09 23:42:00,17.0,17.0,-100.00,West,281,10.0,13.0,98,0.07,,,-99.99,,2013-03-10 06:42:00,
2013-03-09 23:51:00,17.0,17.0,-100.00,West,278,11.0,14.0,99,0.06,,,-99.99,,2013-03-10 06:51:00,